EDT,Max TemperatureF,Mean TemperatureF,Min TemperatureF,Max Dew PointF,MeanDew PointF,Min DewpointF,Max Humidity, Mean Humidity, Min Humidity, Max Sea Level PressureIn, Mean Sea Level PressureIn, Min Sea Level PressureIn, Max VisibilityMiles, Mean VisibilityMiles, Min VisibilityMiles, Max Wind SpeedMPH, Mean Wind SpeedMPH, Max Gust SpeedMPH,PrecipitationIn, CloudCover, Events, WindDirDegrees
2012-10-1,66,55,44,57,50,45,100,89,49,30.03,29.98,29.94,10,7,0,5,1,,0.00,5,,292
2012-10-2,62,58,55,63,59,55,100,98,88,30.01,29.97,29.93,10,6,0,4,1,,0.00,8,,206
2012-10-3,77,70,62,70,65,63,100,95,69,30.17,30.10,30.00,10,6,0,6,0,,0.00,5,,350
2012-10-4,77,66,55,68,59,50,100,77,41,30.23,30.19,30.17,10,8,1,12,2,20,0.00,2,,291
2012-10-5,78,62,46,61,54,46,100,80,42,30.22,30.12,29.99,10,8,0,9,1,,0.00,2,,243
2012-10-6,60,51,42,59,47,34,100,80,39,30.14,30.00,29.89,10,8,0,15,3,23,0.00,2,,294
2012-10-7,53,47,41,46,42,37,100,86,62,30.22,30.14,30.07,10,10,5,9,2,17,0.00,4,,240
2012-10-8,46,40,35,43,40,36,100,98,81,30.33,30.29,30.23,10,8,0,8,1,,0.00,5,,171
2012-10-9,60,50,41,46,43,41,100,85,52,30.28,30.20,30.09,10,9,4,7,1,,0.00,4,,162
2012-10-10,66,54,41,50,43,36,100,80,49,30.15,30.03,29.92,10,8,0,20,3,31,0.00,4,,271
2012-10-11,62,52,39,37,33,30,93,55,34,30.34,30.24,30.16,10,10,4,10,5,21,0.00,0,,293
2012-10-12,55,44,33,41,36,32,100,76,41,30.48,30.31,30.20,10,10,1,14,2,22,0.00,2,,332
2012-10-13,60,46,32,43,37,32,100,71,42,30.49,30.35,30.24,10,10,10,7,1,,0.00,0,,137
2012-10-14,77,59,41,55,48,41,100,75,47,30.23,30.09,29.89,10,10,7,12,2,17,0.00,1,,156
2012-10-15,68,60,51,61,53,45,100,78,52,29.91,29.82,29.77,10,10,4,21,6,30,0.00,5,,255
2012-10-16,59,52,42,45,40,37,93,65,45,30.01,29.95,29.90,10,10,10,13,5,20,0.00,4,,312
2012-10-17,69,51,33,46,40,34,100,77,35,30.05,29.97,29.90,10,8,0,7,2,,0.00,1,,149
2012-10-18,68,55,42,57,48,43,100,84,56,29.92,29.86,29.78,10,9,0,17,3,22,0.00,2,,158
2012-10-19,68,59,50,54,51,41,100,86,49,29.88,29.76,29.65,10,8,0,5,1,,0.00,5,,76
2012-10-20,60,51,42,43,41,37,100,65,45,29.98,29.85,29.74,10,10,7,14,7,28,0.00,3,,224
2012-10-21,60,48,35,46,39,36,100,78,42,30.19,30.12,29.99,10,9,1,15,2,22,0.00,1,,308
2012-10-22,73,53,33,50,43,34,100,76,38,30.26,30.19,30.13,10,8,1,7,1,,0.00,0,,211
2012-10-23,78,63,48,55,52,48,100,75,41,30.18,30.12,30.06,10,10,7,13,1,16,0.00,2,,247
2012-10-24,80,66,53,55,54,52,100,74,39,30.20,30.14,30.10,10,10,10,9,1,,0.00,1,,303
2012-10-25,78,63,48,59,55,48,100,82,44,30.23,30.18,30.13,10,9,4,9,2,,0.00,0,,67
2012-10-26,69,62,55,61,58,55,100,88,68,30.22,30.15,30.08,10,7,2,10,1,,0.00,7,,85
2012-10-27,64,62,59,59,53,48,94,77,59,30.08,29.99,29.95,10,10,10,7,1,,0.00,7,,177
2012-10-28,57,52,48,52,50,46,100,87,77,29.95,29.85,29.77,10,10,5,12,6,21,0.00,7,,348
2012-10-29,48,44,41,48,42,37,100,93,87,29.76,29.48,29.02,10,6,2,31,10,53,0.00,8,,337
2012-10-30,,,,,,,,,,,,,,,,,,,,,,
2012-10-31,,,,,,,,,,,,,,,,,,,,,,